FENGYUN 1C DEB, 30579

Orbit data source: Space-Track

FENGYUN 1C DEB, 30579 is space debris in SSO originally from a launch on Mon, 10 May 1999 UTC launched from the Taiyaun Space Center, China (TSC). Fengyun 1C debris stems from the Chinese weather satellite Fengyun-1C, which was intentionally destroyed by a Chinese anti-satellite missile in 2007. This event dramatically increased the amount of space debris, with thousands of trackable fragments posing hazards to satellites and human spaceflight. The Fengyun 1C debris cloud has become a focal point in discussions about space sustainability and the need for international regulations to prevent the creation of new debris.

Loading next visibility...
Identifier
30579, 1999-025ALV
Orbit
SSO
Country
Flag of CNCN / PRC
Related business
Manufacturer
Unknown
Mission
Spacecraft
Bus & Motor
Unknown
Mass
Unknown
Launch date (UTC)
1999-05-10 (27 years ago)
Launch vehicle
Unknown
Launch site
Taiyaun Space Center, China (TSC)
Object type
Payload
Rocket body
Debris
Shape & HBR
Unknown shape, 0.1 m
Radar Cross Section
Small (<0.1 m²)

Expand to show TLE details & history
Last TLE update: 19 hours ago

TLE from 19 hours ago
0 FENGYUN 1C DEB
1 30579U 99025ALV 26123.57449125  .00000298  00000-0  20729-3 0  9992
2 30579  98.7914 149.0927 0053983  66.6357  86.4775 14.05408820984490
Epoch: 2026-05-03T13:47Z
TLE epoch observation values (Epoch: 2026-05-03T13:47:16.044Z)
Latitude
25.97123°
Longitude
-94.9026°
Altitude
876.062 km
Speed
7.418 km/s
True Right ascension
22h 13m 33s
True Declination
25° 50' 18"
Sunlit
Object was in daylight at epoch
Visualization orbit readout
Latitude
Unknown
Longitude
Unknown
Altitude
Unknown
Speed
Unknown
Apparent Right ascension
Unknown
Apparent Declination
Unknown
Sunlit
N/A
Visualization observer readout
Local Sidereal Time
16:39:33
Azimuth
Unknown
Elevation
Unknown
Doppler factor
Unknown
Orbital elements
Apogee altitude
911.447 km
Perigee altitude
833.167 km
Semi-major axis
7,250.444 km
Eccentricity
0.0054
Inclination
98.7914°
RAAN
149.0927°
Arg. of periapsis
66.6357°
True anomaly
87.09518°
Mean anomaly
86.4775°
Eccentric anomaly
86.78631°
Mean motion
3.51557 °/min
Orbital period
102.4 mins
BSTAR
0.00020729
Loading maneuver chart data...
Computing Atmospheric mass density...
Loading historical data...
Loading historical data...
Loading historical data...
Loading historical data...
Loading historical data...
Loading historical data...
Loading historical data...

Documentation

Showing up to 5 results
|